CAPE
0 0 0 0 0 0 0 0 0 0 0 0 0 0 0 0 0 0 0 0 0 0 0 0 0 0 0 0 0 0 0 0 0 0 0 0 0 0 0 0 0 0 0 0 0
0 0 0 0 0 0 0 0 0 0 0 0 0 0 0 0 0 0 0 0 0 0 0 0 0 0 0 0 0 0 0 0 0 0 0 0 0 0 0 0 0 0 0 0 0
0 0 0 0 0 0 0 0 0 0 0 0 0 0 0 0 0 0 0 0 0 0 0 0 0 0 0 0 0 0 0 0 0 0 0 0 0 0 0 0 0 0 0 0 0
0 0 0 0 0 0 0 0 0 0 0 0 0 0 0 0 0 0 0 0 0 0 0 0 0 0 0 0 0 0 0 0 0 0 0 0 0 0 0 0 0 0 0 0 0
0 0 0 0 0 0 0 0 0 0 0 0 0 0 0 0 0 0 0 0 0 0 0 0 0 0 0 0 0 0 0 0 0 0 0 0 0 0 0 0 0 0 0 0 0
0 0 0 0 0 0 0 0 0 0 0 0 0 0 0 0 0 0 0 0 0 0 0 0 0 0 0 0 0 0 0 0 0 0 0 0 0 0 0 0 0 0 0 0 0
0 0 0 0 0 0 0 0 0 0 0 0 0 0 0 0 0 0 0 0 0 0 0 0 0 0 0 0 0 0 0 0 0 0 0 0 0 0 0 0 0 0 0 0 0
0 0 0 0 0 0 0 0 0 0 0 0 0 0 0 0 0 0 0 0 0 0 0 0 0 0 0 0 0 0 0 0 0 0 0 0 0 0 0 0 0 0 0 0 0
0 0 0 0 0 0 0 0 0 0 0 0 0 0 0 0 0 0 0 0 0 0 0 0 0 0 0 0 0 0 0 0 0 0 0 0 0 0 0 0 0 0 0 0 0
0 0 0 0 0 0 0 0 0 0 0 0 0 0 0 0 0 0 0 0 0 0 0 0 0 0 0 0 0 0 0 0 0 0 0 0 0 0 0 0 0 0 0 0 0
0 0 0 0 0 0 0 0 0 0 0 0 0 0 0 0 0 0 0 0 0 0 0 0 0 0 0 0 0 0 0 0 0 0 0 0 0 0 0 0 0 0 0 0 0
0 0 0 0 0 0 0 0 0 0 0 0 0 0 0 0 0 0 0 0 0 0 0 0 0 0 0 0 0 0 0 0 0 0 0 0 0 0 0 0 0 0 0 0 0
0 0 0 0 0 0 0 0 0 0 0 0 0 0 0 0 0 0 0 0 0 0 0 0 0 0 0 0 0 0 0 0 0 0 0 0 0 0 0 0 0 0 0 0 0
0 0 0 0 0 0 0 0 0 0 0 0 0 0 0 0 0 0 0 0 0 0 0 0 0 0 0 0 0 0 0 0 0 0 0 0 0 0 0 0 0 0 0 0 0
0 0 0 0 0 0 0 0 0 0 0 0 0 0 0 0 0 0 0 0 0 0 0 0 0 0 0 0 0 0 0 0 0 0 0 0 0 0 0 0 0 0 0 0 0
0 0 0 0 0 0 0 0 0 0 0 0 0 0 0 0 0 0 0 0 0 0 0 0 0 0 0 0 0 0 0 0 0 0 0 0 0 0 0 0 0 0 0 0 0
0 0 0 0 0 0 0 0 0 0 0 0 0 0 0 0 0 0 0 0 0 0 0 0 0 0 0 0 0 0 0 0 0 0 0 0 0 0 0 0 0 0 0 0 0
0 0 0 0 0 0 0 0 0 0 0 0 0 0 0 0 0 0 0 0 0 0 0 0 0 0 0 0 0 0 0 0 0 0 0 0 0 0 0 0 0 0 0 0 0
0 0 0 0 0 0 0 0 0 0 0 0 0 0 0 0 0 0 0 0 0 0 0 0 0 0 0 0 0 0 0 0 0 0 0 0 0 0 0 0 0 0 0 0 0
0 0 0 0 0 0 0 0 0 0 0 0 0 0 0 0 0 0 0 0 0 0 0 0 0 0 0 0 0 0 0 0 0 0 0 0 0 0 0 0 0 0 0 0 0
0 0 0 0 0 0 0 0 0 0 0 0 0 0 0 0 0 0 0 0 0 0 0 0 0 0 0 0 0 0 0 0 0 0 0 0 0 0 0 0 0 0 0 0 0
0 0 0 0 0 0 0 0 0 0 0 0 0 0 0 0 0 0 0 0 0 0 0 0 0 0 0 0 0 0 0 0 0 0 0 0 0 0 0 0 0 0 0 0 0
0 0 0 0 0 0 0 0 0 0 0 0 0 0 0 0 0 0 0 0 0 0 0 0 0 0 0 0 0 0 0 0 0 0 0 0 0 0 0 0 0 0 0 0 0
0 0 0 0 0 0 0 0 0 0 0 0 0 0 0 0 0 0 0 0 0 0 0 0 0 0 0 0 0 0 0 0 0 0 0 0 0 0 0 0 0 0 0 0 0
0 0 0 0 0 0 0 0 0 0 0 0 0 0 0 0 0 0 0 0 0 0 0 0 0 0 0 0 0 0 0 0 0 0 0 0 0 0 0 0 0 0 0 0 0
0 0 0 0 0 0 0 0 0 0 0 0 0 0 0 0 0 0 0 0 0 0 0 0 0 0 0 0 0 0 0 0 0 0 0 0 0 0 0 0 0 0 0 0 0
0 0 0 0 0 0 0 0 0 0 0 0 0 0 0 0 0 0 0 0 0 0 0 0 0 0 0 0 0 0 0 0 0 0 0 0 0 0 0 0 0 0 0 0 0
CIN
0 0 0 0 0 0 0 0 0 0 0 0 0 0 0 0 0 0 0 0 0 0 0 0 0 0 0 0 0 0 0 0 0 0 0 0 0 0 0 0 0 0 0 0 0
0 0 0 0 0 0 0 0 0 0 0 0 0 0 0 0 0 0 0 0 0 0 0 0 0 0 0 0 0 0 0 0 0 0 0 0 0 0 0 0 0 0 0 0 0
0 0 0 0 0 0 0 0 0 0 0 0 0 0 0 0 0 0 0 0 0 0 0 0 0 0 0 0 0 0 0 0 0 0 0 0 0 0 0 0 0 0 0 0 0
0 0 0 0 0 0 0 0 0 0 0 0 0 0 0 0 0 0 0 0 0 0 0 0 0 0 0 0 0 0 0 0 0 0 0 0 0 0 0 0 0 0 0 0 0
0 0 0 0 0 0 0 0 0 0 0 0 0 0 0 0 0 0 0 0 0 0 0 0 0 0 0 0 0 0 0 0 0 0 0 0 0 0 0 0 0 0 0 0 0
0 0 0 0 0 0 0 0 0 0 0 0 0 0 0 0 0 0 0 0 0 0 0 0 0 0 0 0 0 0 0 0 0 0 0 0 0 0 0 0 0 0 0 0 0
0 0 0 0 0 0 0 0 0 0 0 0 0 0 0 0 0 0 0 0 0 0 0 0 0 0 0 0 0 0 0 0 0 0 0 0 0 0 0 0 0 0 0 0 0
0 0 0 0 0 0 0 0 0 0 0 0 0 0 0 0 0 0 0 0 0 0 0 0 0 0 0 0 0 0 0 0 0 0 0 0 0 0 0 0 0 0 0 0 0
0 0 0 0 0 0 0 0 0 0 0 0 0 0 0 0 0 0 0 0 0 0 0 0 0 0 0 0 0 0 0 0 0 0 0 0 0 0 0 0 0 0 0 0 0
0 0 0 0 0 0 0 0 0 0 0 0 0 0 0 0 0 0 0 0 0 0 0 0 0 0 0 0 0 0 0 0 0 0 0 0 0 0 0 0 0 0 0 0 0
0 0 0 0 0 0 0 0 0 0 0 0 0 0 0 0 0 0 0 0 0 0 0 0 0 0 0 0 0 0 0 0 0 0 0 0 0 0 0 0 0 0 0 0 0
0 0 0 0 0 0 0 0 0 0 0 0 0 0 0 0 0 0 0 0 0 0 0 0 0 0 0 0 0 0 0 0 0 0 0 0 0 0 0 0 0 0 0 0 0
0 0 0 0 0 0 0 0 0 0 0 0 0 0 0 0 0 0 0 0 0 0 0 0 0 0 0 0 0 0 0 0 0 0 0 0 0 0 0 0 0 0 0 0 0
0 0 0 0 0 0 0 0 0 0 0 0 0 0 0 0 0 0 0 0 0 0 0 0 0 0 0 0 0 0 0 0 0 0 0 0 0 0 0 0 0 0 0 0 0
0 0 0 0 0 0 0 0 0 0 0 0 0 0 0 0 0 0 0 0 0 0 0 0 0 0 0 0 0 0 0 0 0 0 0 0 0 0 0 0 0 0 0 0 0
0 0 0 0 0 0 0 0 0 0 0 0 0 0 0 0 0 0 0 0 0 0 0 0 0 0 0 0 0 0 0 0 0 0 0 0 0 0 0 0 0 0 0 0 0
0 0 0 0 0 0 0 0 0 0 0 0 0 0 0 0 0 0 0 0 0 0 0 0 0 0 0 0 0 0 0 0 0 0 0 0 0 0 0 0 0 0 0 0 0
0 0 0 0 0 0 0 0 0 0 0 0 0 0 0 0 0 0 0 0 0 0 0 0 0 0 0 0 0 0 0 0 0 0 0 0 0 0 0 0 0 0 0 0 0
0 0 0 0 0 0 0 0 0 0 0 0 0 0 0 0 0 0 0 0 0 0 0 0 0 0 0 0 0 0 0 0 0 0 0 0 0 0 0 0 0 0 0 0 0
0 0 0 0 0 0 0 0 0 0 0 0 0 0 0 0 0 0 0 0 0 0 0 0 0 0 0 0 0 0 0 0 0 0 0 0 0 0 0 0 0 0 0 0 0
0 0 0 0 0 0 0 0 0 0 0 0 0 0 0 0 0 0 0 0 0 0 0 0 0 0 0 0 0 0 0 0 0 0 0 0 0 0 0 0 0 0 0 0 0
0 0 0 0 0 0 0 0 0 0 0 0 0 0 0 0 0 0 0 0 0 0 0 0 0 0 0 0 0 0 0 0 0 0 0 0 0 0 0 0 0 0 0 0 0
0 0 0 0 0 0 0 0 0 0 0 0 0 0 0 0 0 0 0 0 0 0 0 0 0 0 0 0 0 0 0 0 0 0 0 0 0 0 0 0 0 0 0 0 0
0 0 0 0 0 0 0 0 0 0 0 0 0 0 0 0 0 0 0 0 0 0 0 0 0 0 0 0 0 0 0 0 0 0 0 0 0 0 0 0 0 0 0 0 0
0 0 0 0 0 0 0 0 0 0 0 0 0 0 0 0 0 0 0 0 0 0 0 0 0 0 0 0 0 0 0 0 0 0 0 0 0 0 0 0 0 0 0 0 0
0 0 0 0 0 0 0 0 0 0 0 0 0 0 0 0 0 0 0 0 0 0 0 0 0 0 0 0 0 0 0 0 0 0 0 0 0 0 0 0 0 0 0 0 0
0 0 0 0 0 0 0 0 0 0 0 0 0 0 0 0 0 0 0 0 0 0 0 0 0 0 0 0 0 0 0 0 0 0 0 0 0 0 0 0 0 0 0 0 0
Wind_Speed
11 12 12 11 11 11 11 10 10 9 9 10 10 8 8 10 9 10 12 8 7 13 9 6 20 14 19 12 11 6 8 5 6 6 6 4 5 3 3 7 5 4 4 6 6
13 13 13 11 10 9 9 9 10 11 12 12 10 7 9 9 5 12 11 15 13 5 9 11 15 17 9 9 7 8 7 7 6 7 6 5 5 7 5 6 4 3 1 6 4
13 12 12 12 12 11 10 10 10 10 12 13 10 6 5 4 8 6 14 22 18 7 4 3 6 10 11 7 8 6 7 6 6 10 9 8 6 1 9 4 4 6 3 2 5
13 12 11 11 11 11 11 11 12 13 13 13 12 7 5 5 6 8 15 19 16 8 7 8 12 8 8 8 5 13 8 7 3 5 6 4 3 5 2 6 9 8 5 3 5
11 11 11 12 12 12 12 12 12 12 13 16 15 9 8 10 3 9 15 14 11 18 6 11 11 7 9 7 12 9 5 7 8 10 7 7 4 6 6 7 8 7 6 7 8
11 12 11 12 12 11 10 11 12 13 14 13 17 6 8 18 6 10 10 12 10 10 11 10 9 15 9 5 6 4 9 5 6 4 3 6 3 3 6 7 7 8 10 10 11
11 11 11 11 10 11 12 13 12 13 14 13 12 4 11 3 4 7 10 6 4 6 8 3 6 9 5 10 3 7 8 5 2 0 2 6 1 8 6 7 9 10 10 10 11
12 11 9 10 9 11 12 13 13 13 11 6 11 6 6 5 5 8 6 6 9 5 7 6 8 10 7 6 5 5 5 3 5 5 2 4 8 7 8 8 11 11 9 8 9
12 12 12 12 11 11 13 14 14 12 5 8 4 7 4 7 5 5 2 3 4 5 7 8 10 7 7 6 5 2 2 3 2 9 4 5 7 5 8 8 10 9 8 6 5
12 12 13 13 14 14 17 8 11 7 3 1 3 8 6 4 4 5 4 2 1 4 7 9 8 6 5 6 1 2 4 3 4 5 5 4 12 4 10 9 12 8 8 5 3
13 13 13 13 14 15 10 6 9 10 11 6 2 5 2 4 4 8 6 4 5 8 5 7 10 4 4 1 2 4 5 2 2 5 3 7 7 7 10 5 9 9 4 2 3
13 13 13 13 13 12 2 7 1 4 4 5 4 4 3 2 6 11 7 8 8 5 2 8 6 1 2 6 7 7 4 4 5 4 3 4 9 4 7 8 7 6 3 3 3
13 14 15 16 14 5 7 3 5 4 5 2 0 1 3 6 3 7 5 2 6 7 7 7 1 5 1 5 5 2 3 2 3 4 4 2 8 1 6 5 4 2 3 4 7
14 13 14 19 7 4 3 8 7 3 6 3 2 2 1 5 6 3 3 2 6 4 4 4 3 3 5 4 2 2 5 1 4 5 2 3 6 5 5 3 3 7 6 6 5
13 14 16 4 2 4 6 7 6 5 6 2 1 2 3 4 2 5 3 5 3 3 5 2 3 5 4 1 0 4 6 5 1 3 3 1 3 8 2 5 6 8 6 3 5
12 13 15 5 3 1 6 6 5 9 1 1 1 1 2 1 1 1 4 6 2 2 5 1 2 2 2 4 5 4 1 4 4 3 3 4 5 7 4 6 5 3 4 5 6
12 12 6 1 3 6 4 5 8 8 2 3 4 3 5 4 0 2 4 6 3 4 3 3 1 3 1 4 5 8 6 4 4 5 6 4 3 11 5 7 4 4 8 6 6
12 6 5 1 3 4 4 7 9 2 2 3 3 0 3 2 1 2 4 2 5 3 2 2 5 1 3 2 2 2 4 6 3 2 6 3 6 8 6 4 3 5 5 4 4
11 3 3 3 4 3 7 6 7 2 3 1 2 2 2 1 3 1 3 3 0 3 3 2 3 0 1 1 2 2 3 4 3 1 2 4 7 8 4 4 2 6 3 4 4
3 3 3 4 3 6 7 5 2 1 3 5 2 4 5 4 2 4 2 2 2 1 3 1 3 4 1 2 1 1 3 3 4 1 5 7 6 7 6 8 5 7 7 6 5
4 4 4 3 4 6 4 5 2 2 5 4 2 4 3 2 5 2 2 2 1 1 4 2 4 5 2 4 6 1 1 2 4 5 4 3 9 8 8 7 6 6 7 6 6
2 3 4 3 5 1 1 2 2 1 3 2 0 1 2 4 2 3 4 2 0 2 2 2 4 4 7 2 1 4 5 5 6 3 3 4 11 5 8 7 5 6 6 5 3
2 2 3 5 4 3 5 1 1 2 2 1 2 2 2 2 2 2 3 2 2 3 6 3 2 4 8 6 5 2 4 4 5 4 5 5 10 5 3 5 6 6 7 6 6
3 3 5 5 1 2 1 3 2 1 2 3 2 3 4 2 2 3 3 3 2 2 5 5 3 7 8 7 3 5 4 6 6 4 5 11 10 12 7 9 10 8 9 8 6
2 3 4 3 4 2 0 2 0 2 2 1 1 4 4 2 4 2 3 2 2 3 2 4 3 3 6 11 7 9 13 10 10 8 9 17 10 17 9 9 9 6 4 5 7
2 3 5 1 4 1 2 2 2 2 7 4 3 3 3 5 4 3 6 5 6 2 5 0 3 3 6 7 5 10 13 11 11 8 13 10 15 15 12 6 6 8 7 8 8
2 2 4 4 2 3 4 5 4 1 1 3 7 3 2 4 3 3 2 4 8 10 7 6 3 2 6 6 10 9 7 5 4 5 8 8 17 2 7 8 7 8 8 10 9
Wind_Direction
27 17 16 355 3 357 353 360 338 334 341 341 344 346 347 340 359 36 31 246 271 297 322 266 33 52 60 65 47 74 72 108 152 140 162 181 95 16 57 90 41 70 118 193 215
26 12 7 348 4 356 352 356 341 349 352 345 344 343 341 359 43 34 278 312 309 235 9 25 58 54 53 15 32 70 97 173 174 136 135 129 124 139 90 72 72 93 142 159 124
23 7 357 357 1 353 355 357 340 349 351 341 329 330 331 352 44 316 301 318 319 112 68 27 108 62 58 29 355 16 108 106 67 107 124 140 78 126 136 75 175 153 148 152 122
14 2 354 358 357 351 351 340 344 352 348 343 346 350 84 60 71 282 320 331 0 69 71 51 34 56 71 63 344 87 52 86 101 124 93 98 97 79 97 187 161 157 174 195 196
10 1 1 1 357 351 346 346 345 351 353 1 9 357 48 54 39 282 328 345 23 64 62 96 70 77 82 95 60 70 92 56 98 94 100 94 108 155 153 171 165 175 193 229 233
4 4 3 1 354 344 341 339 343 343 347 2 358 6 60 72 288 319 336 24 18 55 41 60 104 115 101 73 80 107 95 98 58 85 104 114 152 108 222 180 198 196 218 228 230
3 359 358 358 349 345 340 337 335 333 336 354 8 49 60 72 314 330 15 10 23 56 67 38 148 85 104 81 89 109 74 55 356 243 118 121 276 233 193 195 222 232 238 243 237
354 352 351 347 346 345 337 328 320 318 323 2 330 58 83 305 310 28 3 4 14 58 91 85 77 92 83 116 57 68 60 87 249 179 171 114 268 235 188 185 232 245 252 257 262
350 346 351 349 348 339 327 314 302 303 301 310 58 92 15 329 359 314 42 355 325 20 43 62 54 81 37 75 36 6 222 194 255 199 135 172 270 226 192 207 240 251 255 285 308
350 346 342 344 340 344 321 298 307 342 44 63 46 51 352 304 291 332 299 292 102 82 20 36 54 76 47 69 24 296 173 188 192 244 191 193 265 244 205 204 234 254 273 314 284
348 345 340 339 335 330 343 24 18 357 34 120 157 115 246 270 37 346 343 23 68 57 83 15 71 66 331 120 135 114 88 88 242 238 180 229 253 232 209 229 258 261 267 207 73
345 341 338 334 326 324 23 80 125 211 23 18 50 33 18 85 33 338 13 69 55 37 75 30 57 252 306 24 78 43 44 336 285 210 175 259 274 264 186 228 219 227 165 213 220
344 341 341 337 323 43 78 59 299 113 100 336 207 11 324 63 48 317 42 15 96 50 47 102 255 321 179 36 65 65 124 272 250 319 265 28 325 131 239 246 142 88 211 241 214
342 339 339 327 55 313 50 320 352 66 75 323 325 336 335 118 17 299 7 104 34 139 136 90 329 4 60 74 90 123 203 222 311 33 255 96 275 274 238 162 214 247 239 254 183
345 340 340 18 236 47 305 324 343 57 62 221 313 244 352 107 200 340 322 44 91 58 82 273 14 18 44 258 165 227 178 191 255 298 9 318 76 270 165 247 277 273 278 245 184
342 339 338 30 35 250 318 336 49 46 34 342 122 178 80 23 191 258 17 42 47 104 47 98 333 80 263 281 230 299 53 38 53 58 15 251 119 277 195 210 254 282 293 247 183
334 334 355 355 283 319 340 46 41 98 185 179 216 176 197 185 246 106 74 24 60 48 358 4 326 306 303 335 4 27 55 3 6 10 225 303 39 242 230 229 225 250 250 234 191
320 335 317 225 308 354 44 52 75 228 178 179 155 279 187 142 283 169 112 46 21 60 90 90 321 335 338 104 208 335 117 144 273 252 273 343 244 262 215 188 162 243 239 207 178
319 352 359 289 330 55 68 51 192 316 296 33 136 191 217 206 175 104 88 132 276 59 116 43 282 37 44 355 107 336 51 169 112 323 26 256 290 322 192 192 249 308 326 260 199
57 21 298 290 28 57 73 212 191 34 17 21 225 167 187 220 169 138 141 337 142 69 120 183 311 205 180 23 358 62 180 48 8 11 291 291 290 241 224 242 269 298 306 268 227
49 47 264 6 60 48 136 231 142 74 80 57 349 356 10 205 185 183 112 324 73 177 73 51 122 295 100 200 190 3 2 59 124 138 181 292 269 223 218 219 243 282 282 258 253
75 51 292 40 55 48 153 238 332 168 52 2 77 323 56 2 353 32 156 214 76 97 91 30 143 256 234 267 219 187 203 142 118 234 220 154 273 263 229 199 199 289 279 277 263
74 260 325 78 114 314 293 220 75 62 83 272 340 31 63 37 352 84 132 216 134 102 166 166 330 343 334 352 349 241 226 167 115 80 212 145 262 305 213 229 253 298 278 264 260
80 22 329 39 134 150 321 281 231 225 184 110 145 73 31 324 218 202 164 213 93 92 126 98 158 182 199 220 186 264 250 209 150 140 201 226 276 268 260 250 284 290 265 250 252
48 256 202 278 317 190 334 265 66 267 279 155 343 205 178 265 329 232 94 80 51 131 77 117 213 239 245 263 260 253 259 229 203 210 195 265 218 263 247 240 251 261 245 248 253
77 39 355 283 300 43 48 241 246 236 158 243 205 190 198 200 223 260 133 185 201 180 174 138 265 301 285 272 295 275 262 242 233 216 244 271 276 271 269 227 251 237 250 261 251
317 333 99 285 356 77 242 233 241 262 146 199 178 124 86 175 204 238 240 181 174 160 183 153 158 58 271 319 325 315 258 190 205 189 183 212 244 258 270 251 253 249 235 250 245